Tracking 34747 objects as of 16-Jul-2026
HD Live streaming from Space Station
objects crossing your sky now

SL-12 R/B(2)

Track SL-12 R/B(2) now!


NORAD ID: 14117
Int'l Code: 1982-009F
Perigee: 35,436.8 km
Apogee: 35,754.1 km
Inclination: 6.4 °
Period: 1,426.0 minutes
Semi major axis: 41966 km
RCS: 2.3838 m2 (large)
Launch date: February 5, 1982
Source: Commonwealth of Independent States (former USSR) (CIS)
Launch site: TYURATAM MISSILE AND SPACE COMPLEX (TTMTR)

Note: This is a ROCKET BODY
Your satellite tracking list
Your tracking list is empty




NASA's NSSDC Master Catalog

Two Line Element Set (TLE):
1 14117U 82009F   26196.47614111  .00000059  00000-0  00000+0 0  9995
2 14117   6.3874 293.5967 0037802 199.8646 182.9035  1.00983277123728
Source of the keplerian elements: AFSPC